sat.trackr.live / text

‹ back to catalog

STARLINK-34648

NORAD 65091 · 2025-167P

PAYLOAD ACTIVE UNKNOWN

§ Identity

Operator
Country
US
Launch date
2025-08-04
Launch site
AFETR
Launch vehicle
Mass (kg)
RCS (m²)

Purposes: comms

External: N2YO · Heavens-Above · Gunter

§ Orbital elements

Epoch: 2026-09-20T05:19:25.270464Z

Period
93.85 min
Inclination
53.1582°
Eccentricity
0.0000598
Mean motion
15.34437803 rev/d
Perigee alt
462.2 km
Apogee alt
463.0 km
Semi-major
6,840.7 km
B*
7.9904e-4
RAAN
195.2570°
Arg perigee
92.4359°
Mean anomaly
267.6712°
Rev number
6,337

§ Raw data

STARLINK-346481 65091U 25167P   26263.22182026  .00026750  00000+0  79904-3 0  99952 65091  53.1582 195.2570 0000598  92.4359 267.6712 15.34437803 63378

JSON: /api/v1/satellites/65091 · /tle

For live sub-satellite position, see the globe view (requires WebGL).

§ Visibility from observer

Set your observer location to see the next 7 days of passes ≥ 10°. The values pass through the URL so the page stays shareable.

No JS? Fill the form by hand. The geolocation button needs JavaScript.